Tracking 29892 objects as of 21-Nov-2024
HD Live streaming from Space Station
objects crossing your sky now

TITAN 3C TRANSTAGE DEB

Track TITAN 3C TRANSTAGE DEB now!


NORAD ID: 38697
Int'l Code: 1968-081X
Perigee: 34,034.7 km
Apogee: 36,880.7 km
Inclination: 4.3 °
Period: 1,419.0 minutes
Semi major axis: 41828 km
RCS: 0.003 m2 (small)
Launch date: September 26, 1968
Source: United States (US)
Launch site: AIR FORCE EASTERN TEST RANGE (AFETR)

Note: This is SATELLITE DEBRIS
Your satellite tracking list
Your tracking list is empty




NASA's NSSDC Master Catalog

Two Line Element Set (TLE):
1 38697U 68081X   24325.62923405 -.00000372  00000-0  00000-0 0  9996
2 38697   4.2566  38.9451 0340195 140.8580 221.3959  1.01482485 69049
Source of the keplerian elements: AFSPC